Vorticity
1 17 20 10 13 10 11 3 1 1 1 1 3 6 9 12 12 13 11 6 3 5 5 5 5 4 4 3 3 3 3 3 6 5 4 5 9 10 12 12 12 9 10
18 12 10 11 8 6 4 2 0 1 2 8 10 15 16 14 10 6 4 4 4 4 4 3 2 2 3 4 7 9 9 9 9 9 10 7 3 5 4 6 7 9 7
12 4 8 9 5 5 4 2 1 6 10 16 17 10 7 6 4 4 4 5 4 2 1 2 6 11 12 9 5 4 5 5 4 6 7 7 5 4 3 5 5 7 8
8 6 7 8 3 1 -0 4 6 11 18 9 6 5 5 4 4 4 3 0 2 7 11 11 7 2 2 3 4 6 8 9 4 -2 -1 -0 2 3 4 4 3 2 3
5 6 7 4 2 4 4 6 13 11 9 6 4 3 4 4 4 3 4 9 11 8 4 2 0 0 4 5 3 1 -0 -1 -0 -1 -2 2 4 6 7 5 7 4 5
2 4 5 4 4 5 5 12 12 8 5 3 4 5 4 5 8 11 13 4 3 5 3 3 2 1 2 3 3 4 3 4 4 5 5 5 3 1 0 5 5 6 -2
5 5 4 5 5 5 9 12 5 4 4 5 4 6 9 11 10 5 2 4 3 2 2 2 2 5 7 6 5 4 6 7 7 4 2 3 4 6 7 7 8 9 8
4 5 6 7 8 10 8 3 5 5 7 8 10 10 11 5 3 2 2 2 2 1 3 5 8 8 6 7 8 8 7 6 0 1 2 2 5 7 9 10 14 16 18
7 9 8 8 7 5 5 7 7 10 12 13 9 3 2 2 2 3 3 2 3 5 9 9 8 8 6 5 4 1 -0 -1 2 7 9 10 12 12 14 22 28 29 40
8 6 7 5 5 7 7 10 14 9 7 6 3 2 4 5 6 6 7 10 10 7 6 4 3 3 4 4 6 4 7 5 4 7 13 14 17 22 28 34 29 21 16
8 5 5 9 9 8 12 7 6 7 6 5 6 4 2 1 4 4 5 6 7 8 8 9 9 7 4 4 2 5 8 9 13 22 20 25 30 32 26 19 16 16 14
3 7 11 8 7 6 7 7 6 7 4 2 1 3 4 6 5 6 7 9 10 9 7 0 5 1 4 6 7 11 15 19 25 26 30 30 25 18 14 12 11 8 7
11 9 7 7 8 7 5 7 2 2 2 2 5 4 5 6 5 7 8 8 6 4 3 2 3 5 9 14 20 25 31 30 27 24 20 17 11 7 6 4 3 2 2
6 9 7 7 7 5 3 1 2 2 3 7 6 4 4 3 9 8 6 6 3 2 1 5 8 11 19 27 29 26 21 18 17 17 11 8 8 7 5 4 2 0 -0
9 7 7 4 3 2 1 3 4 8 6 6 4 5 7 8 7 7 6 4 1 2 7 10 13 31 34 26 21 18 15 13 12 12 11 9 6 6 5 4 4 3 1
7 4 5 4 3 3 5 7 8 6 4 5 6 6 6 8 7 3 3 3 5 8 10 20 31 33 17 10 7 4 5 5 5 5 5 6 6 4 1 2 3 3 5
4 5 4 2 4 7 8 6 5 5 6 7 6 7 8 4 4 2 4 8 9 13 24 37 17 6 3 3 7 9 11 13 15 17 21 21 20 19 19 17 18 21 27
3 2 3 6 7 6 5 6 6 5 5 5 5 6 4 5 3 4 8 9 17 28 28 11 3 3 8 14 16 19 25 31 35 37 43 42 36 36 39 36 35 37 36
3 6 7 6 6 7 6 4 4 4 6 7 6 5 4 3 4 9 12 18 29 24 8 1 2 8 17 21 26 29 25 28 27 23 15 23 33 38 32 30 30 29 29
5 5 5 5 6 4 4 5 6 6 4 5 5 4 4 6 8 13 24 23 22 6 3 3 4 15 23 24 22 16 27 24 13 19 18 15 16 22 22 22 23 24 22
4 4 5 4 5 7 7 7 6 4 5 5 4 4 8 8 17 27 18 22 6 2 2 3 9 23 27 22 15 25 12 8 16 20 17 18 19 21 23 21 16 16 18
4 6 5 6 6 9 11 8 4 5 5 5 4 8 11 16 18 23 20 10 5 3 3 4 13 28 25 19 24 16 7 12 19 13 17 14 15 16 15 12 14 16 27
5 5 5 7 12 13 6 4 6 6 3 5 7 10 12 19 23 18 10 8 4 4 4 7 21 27 19 17 17 11 8 20 25 13 11 17 17 14 12 15 17 27 22
6 8 11 17 10 5 4 7 6 3 3 6 8 6 18 23 18 11 9 7 4 5 5 11 30 21 15 14 15 16 13 18 24 12 -2 11 18 17 15 15 19 21 24
8 16 14 7 6 7 7 4 3 3 5 4 9 16 24 18 12 9 9 7 5 5 7 21 26 17 16 14 17 17 18 17 14 14 2 13 23 18 16 16 18 27 26
17 11 7 9 8 5 2 2 2 4 6 8 17 22 19 13 10 9 10 5 6 1 12 28 19 13 14 15 18 18 17 11 10 15 7 16 24 17 16 23 27 30 11
Height
5802 5802 5801 5801 5801 5800 5801 5800 5800 5799 5797 5794 5791 5789 5786 5783 5781 5778 5776 5774 5771 5768 5765 5762 5758 5754 5751 5746 5742 5738 5734 5729 5722 5719 5717 5714 5710 5706 5701 5696 5691 5686 5683
5796 5797 5796 5796 5796 5796 5796 5795 5795 5794 5791 5788 5784 5781 5778 5776 5774 5772 5769 5766 5763 5760 5756 5753 5749 5744 5740 5736 5730 5725 5720 5716 5710 5704 5699 5698 5698 5693 5688 5683 5677 5672 5667
5791 5792 5792 5792 5792 5792 5792 5790 5789 5787 5784 5781 5777 5775 5773 5770 5767 5765 5762 5758 5755 5751 5747 5743 5739 5734 5730 5725 5719 5713 5707 5703 5698 5690 5684 5680 5677 5673 5673 5669 5664 5658 5653
5785 5788 5788 5788 5787 5786 5785 5784 5782 5780 5777 5775 5772 5769 5766 5763 5760 5757 5754 5751 5747 5742 5738 5734 5729 5724 5719 5713 5707 5702 5695 5690 5685 5679 5670 5663 5656 5650 5650 5649 5644 5638 5636
5780 5783 5784 5784 5782 5780 5778 5776 5774 5772 5771 5768 5766 5763 5759 5756 5753 5750 5746 5742 5738 5734 5729 5724 5718 5713 5707 5701 5695 5689 5682 5675 5668 5660 5654 5647 5639 5630 5622 5626 5625 5619 5614
5775 5777 5778 5778 5775 5773 5771 5769 5768 5766 5764 5761 5758 5754 5751 5748 5745 5741 5736 5732 5727 5722 5716 5711 5704 5698 5691 5684 5678 5670 5663 5656 5649 5641 5634 5626 5618 5612 5599 5591 5595 5593 5595
5771 5771 5772 5770 5768 5765 5764 5763 5761 5758 5755 5753 5750 5747 5743 5739 5736 5732 5728 5723 5717 5711 5704 5698 5690 5683 5676 5668 5661 5653 5645 5636 5628 5619 5611 5601 5592 5581 5572 5561 5559 5555 5562
5764 5765 5766 5763 5761 5759 5757 5755 5753 5750 5748 5745 5743 5739 5735 5731 5726 5721 5716 5710 5704 5698 5691 5684 5676 5668 5660 5652 5644 5635 5626 5617 5607 5598 5586 5576 5566 5555 5543 5532 5521 5520 5520
5759 5760 5759 5756 5754 5752 5750 5748 5746 5744 5741 5738 5734 5730 5725 5720 5714 5709 5703 5696 5689 5682 5675 5667 5659 5650 5641 5631 5622 5612 5602 5592 5581 5571 5559 5547 5538 5527 5516 5505 5496 5484 5479
5755 5754 5752 5750 5748 5744 5742 5741 5739 5736 5733 5729 5725 5720 5714 5709 5702 5696 5690 5683 5676 5668 5659 5650 5641 5630 5620 5609 5599 5590 5579 5569 5557 5545 5534 5521 5509 5501 5491 5482 5476 5468 5456
5748 5747 5746 5743 5740 5737 5736 5734 5731 5728 5724 5720 5714 5708 5703 5697 5691 5684 5677 5669 5660 5651 5642 5632 5622 5612 5601 5589 5579 5566 5554 5543 5530 5516 5504 5493 5482 5475 5468 5461 5456 5450 5441
5742 5741 5739 5735 5733 5731 5729 5726 5723 5719 5714 5709 5703 5698 5691 5685 5677 5669 5661 5652 5643 5634 5625 5615 5603 5591 5578 5564 5552 5540 5525 5513 5501 5489 5477 5468 5460 5453 5447 5441 5437 5429 5424
5735 5733 5730 5728 5725 5723 5722 5718 5714 5709 5703 5698 5692 5685 5678 5671 5663 5654 5645 5636 5627 5617 5605 5594 5581 5567 5552 5537 5522 5509 5497 5484 5474 5465 5455 5447 5439 5434 5427 5421 5415 5409 5404
5728 5725 5722 5721 5719 5716 5712 5708 5703 5698 5691 5686 5679 5672 5663 5655 5647 5639 5630 5620 5609 5597 5585 5571 5555 5539 5523 5506 5492 5481 5471 5462 5453 5445 5435 5427 5418 5411 5406 5400 5393 5386 5380
5720 5718 5717 5714 5711 5707 5702 5697 5692 5685 5679 5673 5665 5656 5648 5640 5632 5623 5612 5601 5589 5575 5560 5545 5530 5512 5495 5481 5470 5461 5451 5441 5433 5425 5415 5405 5396 5388 5380 5372 5369 5359 5351
5714 5712 5709 5706 5702 5697 5692 5686 5680 5674 5666 5658 5651 5643 5635 5625 5616 5605 5593 5581 5567 5552 5535 5520 5505 5490 5476 5463 5451 5436 5426 5418 5408 5398 5390 5380 5371 5361 5353 5346 5336 5330 5321
5707 5704 5700 5696 5692 5686 5681 5674 5667 5660 5652 5645 5637 5628 5619 5608 5596 5584 5572 5559 5544 5528 5513 5496 5482 5472 5457 5443 5430 5414 5402 5390 5379 5367 5356 5348 5338 5327 5317 5314 5306 5299 5295
5698 5695 5690 5686 5680 5675 5668 5660 5654 5646 5638 5629 5621 5611 5601 5589 5577 5564 5549 5534 5521 5505 5492 5480 5466 5453 5439 5421 5405 5389 5376 5364 5352 5339 5327 5315 5306 5295 5284 5277 5272 5270 5267
5688 5684 5680 5674 5669 5662 5655 5648 5640 5631 5622 5613 5604 5594 5583 5572 5558 5542 5527 5513 5500 5488 5477 5462 5448 5431 5420 5399 5381 5364 5352 5344 5334 5322 5310 5295 5283 5272 5261 5252 5248 5248 5250
5678 5673 5668 5662 5656 5649 5642 5634 5626 5617 5609 5599 5589 5578 5566 5551 5535 5522 5507 5494 5481 5471 5459 5448 5429 5412 5396 5380 5364 5348 5335 5327 5319 5311 5298 5285 5272 5261 5252 5243 5237 5234 5234
5667 5662 5656 5650 5643 5636 5629 5621 5613 5604 5594 5583 5572 5558 5543 5530 5515 5501 5488 5478 5467 5455 5442 5430 5415 5396 5377 5362 5349 5336 5324 5313 5307 5296 5286 5274 5263 5253 5245 5237 5229 5224 5222
5655 5650 5644 5637 5630 5623 5616 5608 5600 5589 5577 5565 5552 5540 5525 5510 5497 5485 5474 5463 5450 5439 5425 5412 5401 5382 5366 5350 5337 5326 5315 5303 5293 5284 5274 5264 5254 5246 5238 5230 5223 5218 5214
5643 5637 5630 5622 5615 5608 5600 5591 5582 5572 5559 5547 5534 5522 5509 5494 5481 5469 5459 5448 5435 5421 5409 5395 5383 5369 5354 5340 5328 5317 5306 5295 5285 5274 5265 5255 5247 5239 5232 5223 5217 5212 5208
5628 5621 5614 5607 5600 5592 5585 5577 5567 5555 5543 5531 5518 5505 5493 5481 5468 5455 5442 5431 5420 5408 5393 5379 5366 5353 5340 5328 5317 5307 5296 5286 5276 5267 5259 5249 5241 5232 5224 5218 5212 5208 5205
5613 5606 5599 5592 5585 5577 5568 5559 5548 5537 5526 5515 5502 5489 5477 5466 5456 5444 5431 5420 5408 5391 5375 5360 5346 5334 5326 5315 5302 5292 5283 5274 5266 5258 5252 5243 5236 5228 5221 5215 5209 5206 5203
5598 5591 5585 5578 5570 5560 5551 5541 5531 5521 5510 5499 5486 5474 5462 5452 5441 5432 5424 5411 5397 5383 5365 5348 5335 5324 5310 5300 5290 5281 5272 5265 5257 5252 5244 5236 5229 5222 5217 5212 5207 5205 5204